Temp
-5 -4 -4 -5 -4 -4 -4 -4 -4 -4 -4 -4 -4 -5 -4 -5 -5 -5 -5 -5 -6 -6 -6 -6 -7 -7 -6 -7 -7 -7 -6 -6 -7 -6 -6 -7 -7 -7 -7 -8 -8 -8 -9
-5 -4 -4 -4 -4 -4 -4 -4 -4 -4 -4 -4 -4 -4 -4 -5 -5 -5 -5 -6 -6 -6 -6 -6 -6 -6 -6 -6 -6 -6 -6 -6 -6 -7 -7 -7 -7 -7 -7 -7 -8 -8 -8
-5 -4 -5 -4 -4 -4 -4 -4 -4 -4 -4 -5 -4 -5 -5 -5 -5 -5 -6 -6 -6 -6 -6 -6 -6 -6 -6 -6 -6 -7 -7 -7 -7 -7 -7 -7 -7 -7 -7 -7 -7 -8 -8
-4 -4 -4 -4 -4 -4 -4 -4 -5 -5 -5 -5 -5 -5 -5 -5 -6 -5 -6 -6 -6 -6 -6 -6 -6 -6 -6 -6 -7 -7 -7 -7 -7 -7 -7 -7 -8 -8 -7 -7 -7 -7 -7
-4 -4 -4 -4 -4 -4 -4 -4 -4 -4 -5 -5 -5 -5 -5 -5 -5 -5 -6 -6 -6 -5 -5 -6 -6 -6 -6 -6 -6 -6 -6 -7 -7 -7 -7 -8 -8 -8 -7 -7 -8 -7 -7
-4 -4 -4 -4 -4 -4 -4 -4 -4 -4 -4 -5 -5 -4 -5 -5 -5 -5 -5 -6 -5 -5 -6 -5 -5 -5 -5 -5 -5 -6 -6 -7 -7 -7 -7 -8 -8 -8 -8 -8 -8 -8 -7
-4 -4 -4 -4 -4 -4 -4 -4 -4 -4 -4 -5 -5 -5 -5 -5 -5 -5 -5 -5 -5 -5 -5 -5 -5 -5 -6 -6 -6 -6 -7 -7 -8 -8 -8 -9 -7 -7 -7 -9 -8 -8 -8
-4 -4 -4 -4 -4 -4 -4 -4 -4 -4 -5 -5 -5 -5 -5 -5 -5 -5 -4 -4 -4 -5 -4 -4 -5 -5 -6 -6 -6 -6 -7 -7 -7 -7 -7 -9 -8 -8 -8 -8 -8 -8 -8
-4 -4 -4 -4 -4 -4 -4 -4 -4 -5 -5 -5 -5 -5 -4 -4 -4 -4 -4 -4 -4 -4 -4 -5 -5 -5 -5 -6 -6 -7 -7 -7 -7 -7 -6 -6 -8 -7 -7 -7 -7 -8 -7
-4 -4 -4 -4 -5 -4 -4 -4 -4 -4 -4 -5 -4 -4 -4 -4 -4 -4 -4 -4 -4 -4 -4 -5 -5 -6 -6 -6 -6 -7 -6 -6 -6 -6 -6 -6 -7 -7 -7 -7 -6 -7 -7
-4 -4 -4 -5 -5 -4 -4 -4 -4 -4 -4 -4 -4 -4 -4 -4 -4 -4 -4 -4 -4 -4 -5 -5 -6 -7 -6 -6 -6 -5 -7 -7 -7 -6 -6 -6 -7 -6 -6 -6 -7 -6 -7
-4 -4 -4 -4 -4 -4 -4 -4 -4 -4 -4 -3 -4 -3 -4 -4 -4 -4 -4 -3 -4 -4 -5 -5 -6 -6 -6 -5 -5 -6 -6 -7 -8 -6 -7 -7 -7 -6 -6 -7 -7 -7 -6
-4 -4 -4 -4 -4 -4 -4 -4 -4 -4 -3 -3 -3 -3 -3 -3 -4 -3 -4 -3 -4 -4 -4 -5 -5 -5 -5 -6 -6 -7 -6 -7 -7 -7 -5 -6 -6 -5 -7 -7 -7 -6 -7
-4 -4 -4 -4 -4 -3 -4 -4 -4 -4 -3 -3 -3 -3 -4 -3 -4 -4 -4 -3 -3 -4 -4 -5 -5 -5 -5 -6 -5 -6 -6 -6 -6 -7 -7 -7 -6 -7 -7 -8 -8 -7 -6
-4 -4 -4 -4 -3 -3 -4 -4 -4 -3 -3 -3 -3 -2 -3 -3 -3 -4 -4 -4 -4 -5 -5 -5 -4 -5 -5 -5 -5 -5 -6 -7 -6 -6 -6 -7 -7 -6 -6 -7 -6 -6 -6
-4 -4 -4 -3 -3 -3 -3 -3 -3 -3 -3 -3 -2 -3 -3 -3 -3 -4 -4 -4 -4 -4 -4 -5 -4 -5 -4 -5 -5 -6 -6 -6 -6 -7 -6 -6 -6 -6 -6 -6 -6 -7 -7
-4 -4 -4 -3 -3 -3 -3 -3 -3 -3 -3 -2 -3 -3 -3 -3 -3 -3 -3 -4 -4 -4 -5 -5 -4 -5 -5 -5 -5 -6 -6 -6 -6 -6 -5 -5 -5 -6 -6 -6 -6 -6 -6
-4 -4 -3 -3 -3 -3 -3 -3 -3 -3 -3 -3 -3 -2 -3 -3 -3 -3 -3 -3 -4 -3 -3 -4 -5 -5 -4 -5 -5 -6 -6 -6 -6 -6 -5 -5 -5 -6 -6 -6 -6 -6 -6
-3 -3 -3 -3 -3 -3 -3 -3 -3 -3 -3 -3 -2 -3 -3 -2 -4 -3 -3 -4 -4 -3 -4 -4 -4 -5 -5 -4 -4 -5 -6 -6 -6 -6 -6 -6 -5 -5 -5 -6 -6 -6 -6
-4 -4 -3 -3 -3 -4 -4 -3 -3 -3 -3 -3 -2 -3 -2 -3 -3 -3 -3 -3 -4 -4 -4 -4 -4 -4 -5 -5 -4 -5 -5 -5 -5 -5 -6 -6 -5 -4 -4 -4 -5 -6 -6
-3 -4 -3 -3 -3 -3 -3 -3 -3 -3 -3 -2 -2 -3 -3 -3 -3 -3 -3 -3 -3 -4 -3 -4 -4 -4 -5 -5 -5 -5 -6 -6 -6 -6 -6 -6 -6 -6 -5 -6 -5 -5 -5
-3 -3 -3 -3 -3 -3 -3 -3 -3 -3 -3 -3 -3 -4 -3 -3 -2 -3 -3 -3 -3 -4 -4 -4 -4 -4 -4 -5 -5 -5 -5 -6 -6 -6 -6 -6 -6 -6 -6 -6 -6 -5 -5
-3 -3 -3 -3 -3 -3 -3 -3 -3 -3 -3 -3 -3 -3 -3 -3 -3 -3 -3 -4 -4 -4 -4 -4 -5 -5 -5 -4 -5 -6 -5 -6 -6 -6 -6 -6 -6 -6 -6 -6 -6 -6 -6
-4 -4 -4 -4 -3 -3 -3 -3 -3 -3 -3 -3 -3 -3 -3 -3 -3 -3 -3 -4 -4 -4 -4 -4 -4 -4 -4 -5 -5 -5 -6 -6 -6 -7 -6 -6 -6 -6 -7 -7 -7 -6 -7
-4 -4 -4 -4 -3 -3 -3 -3 -3 -3 -3 -3 -3 -3 -3 -3 -3 -4 -4 -4 -4 -4 -4 -4 -4 -5 -4 -5 -5 -5 -5 -5 -5 -6 -6 -6 -6 -6 -7 -7 -6 -7 -7
-5 -5 -4 -4 -4 -4 -3 -4 -4 -4 -4 -3 -4 -3 -3 -4 -4 -3 -4 -4 -4 -4 -4 -4 -4 -5 -5 -5 -5 -5 -5 -5 -5 -5 -5 -5 -6 -6 -6 -7 -7 -7 -8
Height
5906 5906 5907 5906 5907 5907 5907 5907 5907 5906 5907 5906 5906 5906 5905 5905 5905 5904 5904 5904 5904 5905 5905 5905 5906 5906 5907 5906 5904 5904 5904 5903 5903 5903 5901 5899 5898 5898 5899 5899 5899 5901 5901
5908 5908 5909 5908 5909 5910 5909 5910 5910 5910 5910 5909 5909 5908 5907 5907 5908 5908 5908 5908 5908 5907 5907 5908 5908 5908 5908 5908 5907 5906 5906 5906 5905 5906 5904 5902 5902 5900 5900 5900 5900 5902 5903
5910 5910 5911 5911 5912 5912 5912 5912 5912 5912 5912 5911 5910 5910 5910 5910 5910 5911 5911 5910 5910 5909 5910 5910 5910 5910 5910 5910 5910 5909 5909 5909 5908 5908 5907 5907 5905 5905 5904 5904 5905 5905 5904
5912 5913 5913 5914 5914 5915 5915 5914 5914 5914 5914 5913 5913 5913 5912 5913 5913 5913 5914 5913 5913 5913 5912 5912 5912 5913 5913 5912 5911 5912 5911 5910 5910 5910 5905 5908 5908 5906 5906 5904 5906 5905 5905
5914 5915 5915 5916 5917 5917 5917 5916 5915 5915 5916 5916 5917 5916 5916 5916 5917 5916 5916 5916 5916 5915 5915 5915 5914 5914 5914 5913 5914 5914 5913 5911 5910 5911 5910 5909 5908 5908 5907 5907 5905 5905 5906
5917 5918 5918 5919 5919 5919 5918 5918 5917 5918 5918 5919 5919 5919 5919 5920 5920 5919 5920 5920 5919 5919 5918 5917 5916 5916 5916 5916 5915 5913 5912 5913 5912 5910 5910 5908 5908 5907 5905 5905 5907 5905 5905
5919 5920 5921 5922 5922 5921 5920 5920 5921 5922 5922 5922 5922 5922 5922 5922 5921 5923 5922 5922 5922 5921 5919 5919 5918 5917 5917 5917 5915 5914 5913 5913 5912 5910 5908 5906 5905 5903 5904 5905 5903 5905 5906
5922 5923 5924 5924 5924 5923 5923 5923 5924 5924 5924 5925 5924 5924 5923 5923 5923 5924 5925 5925 5924 5923 5924 5923 5922 5922 5924 5922 5922 5920 5917 5915 5913 5913 5911 5906 5905 5903 5900 5902 5902 5903 5904
5925 5926 5927 5927 5927 5926 5926 5927 5927 5926 5926 5926 5925 5925 5924 5924 5924 5924 5926 5926 5926 5927 5925 5925 5925 5926 5925 5923 5921 5917 5913 5915 5915 5911 5908 5906 5905 5905 5902 5899 5900 5901 5903
5928 5929 5929 5929 5929 5929 5929 5930 5929 5928 5928 5928 5928 5928 5929 5930 5929 5930 5930 5929 5930 5929 5927 5926 5928 5927 5926 5924 5921 5917 5916 5916 5913 5912 5908 5908 5904 5900 5902 5897 5897 5896 5898
5930 5931 5932 5932 5932 5931 5931 5931 5931 5931 5931 5931 5932 5932 5934 5934 5933 5933 5932 5932 5931 5931 5931 5931 5929 5927 5926 5926 5921 5921 5918 5913 5913 5913 5911 5906 5903 5898 5897 5898 5897 5893 5894
5934 5934 5934 5933 5933 5933 5933 5933 5934 5933 5933 5934 5936 5936 5937 5937 5936 5935 5934 5934 5933 5934 5932 5931 5929 5929 5925 5921 5923 5924 5912 5911 5911 5911 5911 5907 5904 5896 5894 5894 5892 5893 5890
5936 5936 5936 5935 5935 5935 5935 5937 5937 5937 5937 5938 5938 5938 5939 5937 5937 5937 5939 5939 5936 5935 5933 5935 5930 5927 5924 5925 5916 5917 5904 5912 5910 5909 5906 5905 5898 5898 5894 5892 5887 5885 5888
5937 5938 5939 5937 5937 5938 5938 5940 5940 5939 5941 5942 5941 5940 5939 5939 5940 5942 5942 5941 5939 5936 5935 5936 5931 5930 5926 5924 5921 5916 5912 5911 5908 5903 5898 5894 5892 5893 5889 5884 5884 5881 5884
5939 5940 5939 5938 5939 5940 5941 5941 5942 5943 5942 5942 5944 5942 5943 5942 5942 5940 5939 5939 5937 5936 5934 5933 5931 5929 5927 5923 5919 5916 5911 5908 5902 5898 5894 5891 5886 5883 5879 5878 5879 5879 5879
5941 5941 5940 5940 5941 5942 5942 5942 5943 5943 5943 5944 5944 5946 5946 5942 5940 5940 5939 5938 5933 5935 5936 5930 5927 5925 5924 5920 5914 5911 5906 5904 5900 5892 5893 5888 5883 5881 5880 5878 5875 5874 5875
5943 5942 5942 5942 5943 5944 5944 5943 5943 5944 5945 5945 5946 5946 5945 5942 5944 5945 5941 5938 5940 5939 5934 5935 5928 5923 5920 5916 5913 5909 5901 5899 5898 5897 5896 5892 5887 5882 5877 5876 5875 5873 5871
5944 5944 5944 5945 5946 5946 5945 5945 5943 5944 5946 5947 5947 5946 5945 5943 5944 5943 5941 5938 5938 5938 5931 5933 5928 5924 5921 5915 5914 5911 5908 5905 5903 5899 5895 5888 5883 5880 5878 5873 5871 5867 5864
5945 5946 5946 5946 5947 5947 5946 5946 5945 5945 5946 5946 5946 5945 5944 5940 5943 5942 5942 5941 5937 5936 5933 5932 5928 5925 5923 5921 5917 5914 5909 5904 5902 5898 5893 5887 5883 5878 5873 5868 5864 5862 5861
5945 5946 5947 5947 5947 5947 5948 5947 5945 5944 5945 5945 5946 5945 5942 5939 5941 5942 5942 5941 5940 5936 5933 5933 5930 5927 5923 5920 5915 5913 5910 5906 5902 5897 5892 5888 5881 5876 5871 5866 5859 5857 5855
5945 5946 5946 5947 5947 5947 5947 5947 5947 5944 5945 5945 5944 5945 5943 5941 5940 5940 5939 5937 5936 5935 5935 5933 5930 5927 5923 5918 5914 5909 5906 5902 5899 5895 5890 5886 5879 5873 5867 5860 5855 5852 5848
5944 5944 5945 5945 5946 5946 5946 5945 5945 5943 5943 5944 5944 5944 5943 5943 5941 5939 5938 5936 5937 5934 5930 5928 5925 5923 5920 5918 5912 5908 5905 5902 5896 5892 5887 5882 5876 5870 5865 5859 5855 5849 5846
5943 5943 5944 5943 5944 5944 5944 5944 5944 5943 5943 5944 5942 5941 5939 5938 5939 5937 5936 5935 5932 5931 5930 5927 5925 5921 5919 5915 5912 5909 5904 5899 5893 5888 5884 5879 5874 5869 5863 5858 5852 5848 5845
5940 5940 5941 5942 5942 5942 5942 5942 5942 5942 5942 5942 5941 5941 5940 5939 5937 5937 5936 5934 5932 5931 5928 5926 5924 5921 5918 5915 5909 5905 5901 5897 5890 5887 5882 5877 5872 5866 5860 5853 5849 5845 5841
5938 5938 5938 5939 5939 5939 5939 5939 5939 5939 5940 5940 5939 5940 5940 5939 5938 5937 5936 5934 5933 5931 5928 5924 5921 5918 5915 5912 5908 5905 5901 5896 5890 5885 5881 5875 5869 5862 5855 5849 5844 5839 5833
5939 5937 5936 5937 5938 5938 5938 5938 5937 5938 5938 5939 5939 5938 5938 5938 5938 5935 5933 5933 5932 5929 5926 5924 5920 5918 5915 5911 5907 5903 5900 5896 5890 5884 5878 5872 5865 5858 5850 5844 5839 5833 5827
Wind_Speed
11 10 10 11 11 10 11 11 13 12 12 12 10 9 9 11 13 13 15 16 16 15 14 15 15 14 12 12 14 14 15 15 14 14 14 15 16 15 16 17 17 14 9
12 10 9 11 10 11 11 10 11 11 12 11 9 8 9 11 12 14 14 14 15 15 14 15 14 14 13 13 15 15 15 15 15 16 16 15 15 15 16 15 14 13 13
11 10 9 11 12 11 10 9 10 11 12 12 10 10 12 12 13 14 15 17 15 13 14 15 15 15 15 14 14 14 14 14 14 14 12 12 12 12 11 11 11 11 14
11 9 11 12 11 9 9 9 10 12 13 13 13 14 13 14 15 16 17 16 16 16 15 14 14 15 14 13 13 12 12 11 11 12 9 9 10 9 9 10 11 10 11
10 11 13 11 10 10 8 9 11 12 14 15 16 15 14 16 18 17 16 16 16 14 13 13 12 12 11 11 11 11 10 10 10 10 10 12 10 10 9 9 7 9 9
12 13 11 11 11 11 11 12 13 14 13 15 16 17 16 17 17 17 16 15 13 13 12 12 12 11 11 12 12 11 11 11 11 10 9 10 10 10 9 8 8 6 8
14 12 11 10 12 12 13 14 14 16 14 14 15 15 15 16 15 17 15 15 14 12 11 11 10 10 11 11 10 12 12 13 13 12 10 7 6 8 9 7 6 7 7
12 11 10 12 12 14 14 14 13 14 14 14 14 14 15 15 15 15 15 14 12 11 12 12 13 14 16 15 17 18 15 12 11 12 11 8 8 7 5 6 7 6 5
11 10 11 12 12 15 14 13 13 13 13 13 13 14 14 15 14 14 14 13 12 13 13 12 12 15 16 16 13 10 9 12 13 8 12 10 9 7 6 6 7 7 8
10 11 12 12 12 13 12 11 12 14 13 13 13 13 14 13 13 14 13 12 11 11 12 12 14 14 15 13 15 14 14 19 15 12 13 11 13 11 12 7 9 8 7
10 11 11 12 12 11 9 7 9 11 10 12 13 13 13 10 11 11 12 10 11 12 12 14 15 15 15 20 15 18 14 18 16 16 13 11 29 14 12 16 21 20 14
9 9 10 11 13 11 10 8 9 10 11 12 13 13 12 10 10 9 7 9 11 13 10 13 11 15 12 15 21 18 10 21 25 24 22 19 17 25 12 25 27 27 21
10 10 10 11 11 10 9 10 11 11 10 10 14 11 11 8 7 7 8 10 11 11 10 12 10 14 15 18 20 34 12 27 23 20 20 19 19 16 19 27 26 14 17
10 11 12 12 11 10 9 7 8 11 7 11 12 7 6 5 7 8 9 11 15 18 18 15 16 16 19 19 21 21 24 28 28 26 26 26 22 22 19 19 23 15 20
11 12 13 13 12 11 9 6 7 6 8 8 7 5 4 5 5 5 9 12 13 14 15 19 18 19 19 19 24 25 26 27 29 33 28 26 23 27 25 22 24 18 19
12 13 15 14 13 14 10 8 7 6 6 6 6 3 1 6 4 7 8 8 11 12 16 17 16 21 24 23 26 30 27 26 33 35 32 25 24 25 26 23 20 20 9
11 13 16 14 13 14 12 11 7 6 4 5 5 3 4 4 7 10 15 14 18 18 13 18 16 23 24 24 26 28 30 28 33 32 27 23 26 33 21 17 21 18 21
7 9 12 12 12 13 13 12 8 7 5 4 1 5 3 6 7 8 13 12 16 16 21 19 21 22 22 23 22 23 28 25 26 22 24 26 30 25 26 22 27 23 17
3 5 8 8 9 11 11 11 10 9 7 6 5 4 7 6 6 10 10 10 15 18 19 21 20 23 23 20 19 23 26 23 24 24 24 28 28 27 32 33 23 22 19
1 3 4 5 6 8 8 8 9 9 8 8 5 6 7 9 9 10 9 10 13 17 16 18 18 16 17 20 20 21 21 20 24 27 26 28 28 30 31 34 29 20 18
3 4 6 7 7 8 8 8 7 9 8 8 7 4 8 10 10 10 12 16 21 19 19 16 17 17 18 23 24 24 25 26 26 25 23 26 26 29 28 30 26 23 17
6 5 6 7 7 7 8 10 10 11 12 10 7 5 9 6 8 10 13 17 19 20 21 21 24 26 25 23 24 24 22 22 24 23 21 25 29 30 30 27 27 23 17
10 11 11 10 8 8 9 9 10 12 13 9 9 11 12 11 11 13 17 19 21 19 17 19 20 20 19 22 20 20 21 23 23 22 22 25 30 31 30 27 24 22 17
9 11 11 12 12 11 11 11 12 12 11 10 10 9 11 11 11 13 16 19 20 20 20 19 18 18 17 19 22 23 24 25 25 22 25 27 32 32 31 28 24 17 20
4 6 7 8 9 8 8 8 8 10 10 8 10 9 10 9 11 14 17 18 19 18 20 20 19 20 19 20 22 24 25 24 27 23 27 29 34 36 34 26 22 22 27
5 6 9 7 8 10 7 7 7 7 8 8 7 10 9 9 12 16 19 19 18 19 19 21 20 16 17 20 22 25 25 25 27 26 27 31 32 35 32 30 30 29 33
Wind_Direction
113 118 120 104 96 95 88 85 85 84 76 69 73 74 80 92 92 95 86 82 77 76 71 67 68 68 74 71 70 64 65 65 65 64 57 63 65 61 58 53 52 48 52
123 120 112 101 97 96 85 84 81 81 76 72 74 89 95 98 97 96 85 83 80 76 72 74 80 84 85 79 69 63 59 57 53 56 56 55 53 55 57 52 51 46 40
122 118 108 103 101 98 92 88 85 77 74 80 90 98 103 102 99 93 90 84 81 77 76 82 86 88 80 75 69 66 59 54 51 51 47 52 54 47 49 54 52 46 45
123 119 112 109 106 98 92 89 82 79 84 89 93 97 102 103 96 89 87 87 87 83 83 86 82 80 73 62 57 55 49 51 48 51 46 42 40 45 39 42 36 37 43
121 119 119 111 105 95 87 85 83 88 96 96 97 98 101 96 97 96 93 91 86 81 80 78 73 66 62 54 44 36 34 41 45 43 41 30 24 30 28 30 41 37 33
122 125 114 107 96 88 89 90 94 98 95 96 94 95 97 99 103 102 97 90 82 74 66 62 52 49 46 42 36 32 28 31 35 42 39 25 5 12 15 22 8 29 43
128 118 109 97 90 92 93 92 100 106 104 101 102 103 105 99 95 89 87 81 72 67 62 55 49 43 42 38 35 30 21 24 27 25 31 26 2 12 3 359 348 352 3
121 109 105 101 99 101 95 94 100 106 107 104 103 99 95 93 83 78 74 72 74 72 63 53 43 37 37 29 23 22 16 13 12 20 8 8 2 1 8 340 331 336 336
111 104 95 101 104 99 95 97 105 106 105 102 98 91 85 81 78 76 72 70 71 72 71 65 55 47 37 33 29 19 2 14 2 355 359 351 336 335 337 333 324 318 326
112 101 97 101 97 94 97 94 101 101 101 98 88 76 70 66 69 69 74 72 67 67 69 64 49 41 29 11 2 342 357 5 356 334 359 342 360 336 318 322 323 309 296
108 96 103 101 94 86 87 96 94 89 82 80 83 76 71 71 68 63 67 68 61 52 46 48 49 37 1 15 339 346 339 355 342 322 334 327 322 326 345 355 339 323 295
103 98 99 97 90 81 78 86 88 86 84 88 83 73 74 79 76 76 68 66 55 52 37 37 21 18 23 332 346 335 345 349 10 346 343 347 338 304 214 332 323 297 285
103 95 98 97 83 83 85 80 84 79 86 83 82 87 87 60 69 63 52 36 36 37 15 30 3 354 343 355 320 5 326 348 348 344 328 314 324 322 322 332 347 301 271
90 94 99 92 83 85 80 81 70 58 62 75 81 85 40 76 43 23 35 27 23 13 2 356 358 355 346 343 353 352 353 350 338 342 331 321 317 324 325 332 337 327 287
83 86 82 76 77 76 76 79 82 92 96 100 91 85 65 55 45 33 32 30 26 10 356 351 346 349 354 354 355 353 354 355 17 9 6 351 334 321 326 323 322 307 302
83 82 77 67 66 67 63 58 62 84 82 105 113 90 63 59 18 27 357 27 26 21 5 344 351 355 351 357 356 354 2 10 8 15 12 351 355 341 322 325 318 305 277
86 79 74 65 60 61 57 55 54 35 68 99 81 87 40 45 27 4 9 0 359 359 344 346 342 357 354 354 357 356 9 7 5 9 1 6 349 347 321 339 347 306 288
88 78 74 66 62 60 51 45 30 54 38 33 5 47 40 48 33 15 4 350 358 348 6 350 349 353 351 358 355 6 1 355 358 1 360 358 358 5 4 336 326 320 315
80 66 57 45 41 48 48 38 27 22 22 18 40 17 338 15 36 20 349 359 350 351 4 353 2 355 345 351 356 352 358 354 1 355 350 357 359 356 355 346 325 317 296
359 24 36 15 358 16 31 26 14 5 12 357 358 7 351 356 7 354 348 354 353 2 357 355 4 354 329 351 356 356 356 354 351 347 347 350 356 349 348 343 339 320 293
314 338 349 349 345 343 353 355 355 349 357 332 354 8 356 352 341 335 353 354 355 359 1 359 3 357 357 348 347 346 349 349 344 340 341 350 359 349 338 342 342 329 313
276 303 317 319 321 324 335 335 339 334 348 345 352 310 338 336 331 358 354 352 348 352 353 357 359 354 351 347 348 343 343 346 346 349 347 351 347 346 347 348 350 345 335
299 306 300 296 298 303 312 320 323 324 328 330 319 326 336 337 337 349 350 347 344 349 349 350 352 351 345 347 360 359 2 356 352 349 351 359 343 341 343 347 349 348 345
282 285 296 300 297 300 307 310 312 315 320 328 316 322 325 322 336 338 337 339 341 341 339 339 342 346 351 354 360 4 359 356 357 352 2 350 342 341 343 343 342 330 337
325 309 298 291 294 291 300 301 307 312 313 314 311 308 297 314 324 327 329 333 330 330 333 341 342 348 0 360 0 1 3 1 358 355 354 347 341 345 346 340 343 335 330
337 312 299 307 311 304 298 305 314 311 308 306 299 297 299 301 308 318 327 323 324 331 332 336 343 358 2 5 6 6 8 8 2 359 347 343 343 346 345 340 340 335 328